sat.trackr.live / text

‹ back to catalog

STARLINK-2607

NORAD 48391 · 2021-038AQ

PAYLOAD ACTIVE UNKNOWN

§ Identity

Operator
Country
US
Launch date
2021-05-04
Launch site
AFETR
Launch vehicle
Mass (kg)
RCS (m²)

Purposes: comms

External: N2YO · Heavens-Above · Gunter

§ Orbital elements

Epoch: 2026-09-19T23:23:11.925312Z

Period
94.01 min
Inclination
53.1599°
Eccentricity
0.0001238
Mean motion
15.31710334 rev/d
Perigee alt
469.9 km
Apogee alt
471.6 km
Semi-major
6,848.8 km
B*
2.9035e-6
RAAN
148.8433°
Arg perigee
82.8341°
Mean anomaly
277.2801°
Rev number
29,842

§ Raw data

STARLINK-26071 48391U 21038AQ  26262.97444358 -.00000275  00000+0  29035-5 0  99992 48391  53.1599 148.8433 0001238  82.8341 277.2801 15.31710334298420

JSON: /api/v1/satellites/48391 · /tle

For live sub-satellite position, see the globe view (requires WebGL).

§ Visibility from observer

Set your observer location to see the next 7 days of passes ≥ 10°. The values pass through the URL so the page stays shareable.

No JS? Fill the form by hand. The geolocation button needs JavaScript.